Total_Precipitation_Accumulation
0.55 0.42 0.33 0.14 0.06 0.04 0.01 0.00 0.00 0.00 0.00 0.00 0.00 0.00 0.00 0.00 0.00 0.00 0.00 0.00 0.00 0.00 0.00 0.00 0.00 0.00 0.00 0.00 0.00 0.00 0.00 0.00 0.00 0.00 0.00 0.00 0.00 0.00 0.00 0.00 0.00 0.00 0.00
0.52 0.42 0.31 0.24 0.10 0.04 0.01 0.00 0.00 0.00 0.00 0.00 0.00 0.00 0.00 0.00 0.00 0.00 0.00 0.00 0.00 0.00 0.00 0.00 0.00 0.00 0.00 0.00 0.00 0.00 0.00 0.00 0.00 0.00 0.00 0.00 0.00 0.00 0.00 0.00 0.00 0.00 0.00
1.02 0.67 0.37 0.36 0.15 0.04 0.01 0.00 0.00 0.00 0.00 0.00 0.00 0.00 0.00 0.00 0.00 0.00 0.00 0.00 0.00 0.00 0.00 0.00 0.00 0.00 0.00 0.00 0.00 0.00 0.00 0.00 0.00 0.00 0.00 0.00 0.00 0.00 0.00 0.00 0.00 0.00 0.00
0.83 0.88 0.56 0.39 0.19 0.05 0.02 0.01 0.00 0.00 0.00 0.00 0.00 0.00 0.00 0.00 0.00 0.00 0.00 0.00 0.00 0.00 0.00 0.00 0.00 0.00 0.00 0.00 0.00 0.00 0.00 0.00 0.00 0.00 0.00 0.00 0.00 0.00 0.00 0.00 0.00 0.00 0.00
0.45 0.44 0.47 0.42 0.29 0.08 0.03 0.01 0.00 0.00 0.00 0.00 0.00 0.00 0.00 0.00 0.00 0.00 0.00 0.00 0.00 0.00 0.00 0.00 0.00 0.00 0.00 0.00 0.00 0.00 0.00 0.00 0.00 0.00 0.00 0.00 0.00 0.00 0.00 0.00 0.00 0.00 0.00
0.22 0.25 0.26 0.33 0.30 0.10 0.05 0.01 0.00 0.00 0.00 0.00 0.00 0.00 0.00 0.00 0.00 0.00 0.00 0.00 0.00 0.00 0.00 0.00 0.00 0.00 0.00 0.00 0.00 0.00 0.00 0.00 0.00 0.00 0.00 0.00 0.00 0.00 0.00 0.00 0.00 0.00 0.00
0.27 0.18 0.23 0.25 0.25 0.10 0.06 0.02 0.00 0.00 0.00 0.00 0.00 0.00 0.00 0.00 0.00 0.00 0.00 0.00 0.00 0.00 0.00 0.00 0.00 0.00 0.00 0.00 0.00 0.00 0.00 0.00 0.00 0.00 0.00 0.00 0.00 0.00 0.00 0.00 0.00 0.00 0.00
0.47 0.17 0.19 0.33 0.28 0.17 0.08 0.03 0.01 0.00 0.00 0.00 0.00 0.00 0.00 0.00 0.00 0.00 0.00 0.00 0.00 0.00 0.00 0.00 0.00 0.00 0.00 0.00 0.00 0.00 0.00 0.00 0.00 0.00 0.00 0.00 0.00 0.00 0.00 0.00 0.00 0.00 0.00
0.73 0.31 0.14 0.33 0.38 0.36 0.15 0.07 0.02 0.01 0.00 0.00 0.00 0.00 0.00 0.00 0.00 0.00 0.00 0.00 0.00 0.00 0.00 0.00 0.00 0.00 0.00 0.00 0.00 0.00 0.00 0.00 0.00 0.00 0.00 0.00 0.00 0.00 0.00 0.00 0.00 0.00 0.00
0.59 0.60 0.32 0.31 0.33 0.37 0.37 0.12 0.04 0.01 0.02 0.01 0.00 0.00 0.00 0.00 0.00 0.00 0.00 0.00 0.00 0.00 0.00 0.00 0.00 0.00 0.00 0.00 0.00 0.00 0.00 0.00 0.00 0.00 0.00 0.00 0.00 0.00 0.00 0.00 0.00 0.00 0.00
0.89 0.68 0.56 0.42 0.36 0.33 0.22 0.11 0.10 0.06 0.04 0.03 0.02 0.02 0.01 0.00 0.00 0.00 0.00 0.00 0.00 0.00 0.00 0.00 0.00 0.00 0.00 0.00 0.00 0.00 0.00 0.00 0.00 0.00 0.00 0.00 0.00 0.00 0.00 0.00 0.00 0.00 0.00
0.82 0.63 0.59 0.46 0.32 0.40 0.19 0.13 0.10 0.09 0.07 0.03 0.03 0.03 0.03 0.00 0.00 0.00 0.00 0.00 0.00 0.00 0.00 0.00 0.00 0.00 0.00 0.00 0.00 0.00 0.00 0.00 0.00 0.00 0.00 0.00 0.00 0.00 0.00 0.00 0.00 0.00 0.00
0.56 0.73 0.77 0.62 0.37 0.29 0.31 0.15 0.11 0.10 0.07 0.05 0.03 0.03 0.03 0.02 0.00 0.00 0.00 0.00 0.00 0.00 0.00 0.00 0.00 0.00 0.00 0.00 0.00 0.00 0.00 0.00 0.00 0.00 0.00 0.00 0.00 0.00 0.00 0.00 0.00 0.00 0.00
1.27 0.86 0.89 1.07 0.91 0.42 0.38 0.32 0.31 0.16 0.09 0.07 0.05 0.04 0.03 0.03 0.01 0.00 0.00 0.00 0.00 0.00 0.00 0.00 0.00 0.00 0.00 0.00 0.00 0.00 0.00 0.00 0.00 0.00 0.00 0.00 0.00 0.00 0.00 0.00 0.00 0.00 0.00
1.94 1.42 1.22 0.88 1.11 1.08 0.72 0.58 0.40 0.30 0.19 0.15 0.12 0.09 0.05 0.03 0.03 0.02 0.01 0.01 0.01 0.00 0.00 0.00 0.00 0.00 0.00 0.00 0.00 0.00 0.00 0.00 0.00 0.00 0.00 0.00 0.00 0.00 0.00 0.00 0.00 0.00 0.00
1.18 1.74 1.74 1.68 1.17 1.01 0.88 0.78 0.82 0.76 0.68 0.49 0.42 0.35 0.32 0.29 0.24 0.17 0.09 0.05 0.05 0.07 0.06 0.02 0.00 0.00 0.00 0.00 0.00 0.00 0.00 0.00 0.00 0.00 0.00 0.00 0.00 0.00 0.00 0.00 0.00 0.00 0.00
0.53 0.82 1.32 1.58 1.84 1.78 1.51 1.30 1.12 1.11 1.10 1.00 0.83 0.69 0.56 0.48 0.37 0.25 0.17 0.09 0.03 0.02 0.02 0.03 0.03 0.01 0.00 0.00 0.00 0.00 0.00 0.00 0.00 0.00 0.00 0.00 0.00 0.00 0.00 0.00 0.00 0.00 0.00
0.10 0.27 0.48 0.69 1.05 1.49 1.67 1.50 1.38 1.28 1.23 1.09 0.78 0.60 0.48 0.39 0.33 0.27 0.18 0.10 0.04 0.01 0.00 0.00 0.00 0.01 0.03 0.00 0.00 0.00 0.00 0.00 0.00 0.00 0.00 0.00 0.00 0.00 0.00 0.00 0.00 0.00 0.00
0.01 0.02 0.10 0.26 0.34 0.48 0.71 0.98 1.17 1.08 0.85 0.74 0.77 0.68 0.53 0.48 0.42 0.33 0.22 0.10 0.04 0.03 0.03 0.02 0.00 0.00 0.00 0.00 0.00 0.00 0.00 0.00 0.00 0.00 0.00 0.00 0.00 0.00 0.00 0.00 0.00 0.00 0.00
0.01 0.04 0.03 0.01 0.08 0.18 0.36 0.31 0.36 0.39 0.41 0.40 0.45 0.57 0.70 0.71 0.56 0.47 0.42 0.35 0.30 0.23 0.16 0.08 0.03 0.01 0.01 0.01 0.00 0.00 0.00 0.00 0.00 0.00 0.00 0.00 0.00 0.00 0.00 0.00 0.00 0.00 0.00
0.01 0.02 0.03 0.01 0.01 0.02 0.04 0.08 0.12 0.15 0.19 0.23 0.24 0.32 0.36 0.37 0.40 0.45 0.47 0.45 0.40 0.36 0.32 0.32 0.32 0.27 0.22 0.18 0.14 0.11 0.09 0.07 0.05 0.04 0.02 0.01 0.01 0.00 0.00 0.00 0.00 0.00 0.00
0.00 0.01 0.01 0.01 0.01 0.01 0.02 0.03 0.05 0.06 0.07 0.10 0.12 0.19 0.26 0.18 0.18 0.21 0.28 0.34 0.41 0.44 0.41 0.40 0.42 0.43 0.45 0.47 0.48 0.48 0.44 0.40 0.35 0.32 0.29 0.24 0.19 0.13 0.10 0.09 0.06 0.04 0.02
0.00 0.00 0.00 0.00 0.01 0.04 0.03 0.02 0.03 0.04 0.07 0.10 0.13 0.15 0.20 0.26 0.34 0.38 0.39 0.40 0.40 0.36 0.32 0.30 0.29 0.29 0.33 0.39 0.43 0.43 0.39 0.34 0.33 0.36 0.31 0.23 0.18 0.15 0.13 0.13 0.10 0.08 0.06
0.00 0.00 0.00 0.00 0.00 0.00 0.01 0.02 0.03 0.06 0.04 0.03 0.03 0.03 0.04 0.07 0.11 0.16 0.22 0.26 0.29 0.31 0.32 0.30 0.28 0.26 0.25 0.27 0.29 0.31 0.29 0.25 0.22 0.19 0.18 0.18 0.17 0.19 0.22 0.23 0.20 0.19 0.18
0.00 0.00 0.00 0.00 0.00 0.01 0.01 0.01 0.02 0.03 0.05 0.06 0.07 0.11 0.14 0.15 0.14 0.15 0.17 0.20 0.21 0.24 0.27 0.30 0.30 0.28 0.25 0.21 0.18 0.18 0.25 0.27 0.23 0.25 0.24 0.26 0.25 0.24 0.26 0.27 0.24 0.21 0.18
0.00 0.00 0.00 0.00 0.00 0.01 0.01 0.01 0.00 0.01 0.02 0.04 0.06 0.08 0.11 0.14 0.16 0.17 0.17 0.17 0.16 0.18 0.19 0.21 0.24 0.27 0.29 0.30 0.31 0.33 0.36 0.33 0.33 0.35 0.32 0.29 0.27 0.24 0.23 0.24 0.22 0.22 0.21